Location: Ferques
(50.8300°N, 1.7599°E)
Time: 19:18:59
(UTC+00:00)

Cosmos 2278 - Pass Details

Date: 19 May 2025
Orbit: 839 x 850 km, 71.1° (Epoch: 23 June)

Event Time Altitude Azimuth Distance (km) Brightness Sun altitude
Rises 23:06:10 0° 329° (NNW) 3,405 8.2 -18.5°
Reaches altitude 10° 23:08:37 10° 328° (NNW) 2,466 7.2 -18.6°
Maximum altitude 23:14:16 74° 245° (WSW) 876 3.7 -18.8°
Enters shadow 23:16:46 34° 167° (SSE) 1,351 4.2 -18.8°
